Radiation Dose at Monitoring Post of Fukushima Daini Nuclear Power Station
Date,Time,MP-1(microSv/h),MP-2(microSv/h),MP-3(microSv/h),MP-4(microSv/h),MP-5(microSv/h),MP-6(microSv/h),MP-7(microSv/h),Wind Direction,Wind Velocity(m/s),Rain
2024/04/17,00:00,0.146,0.128,0.210,0.195,0.207,0.115,0.075,south-southwest,6.1,No
2024/04/17,00:10,0.146,0.127,0.210,0.196,0.206,0.115,0.075,south-southwest,6.7,No
2024/04/17,00:20,0.147,0.127,0.209,0.195,0.205,0.114,0.075,south,5.3,No
2024/04/17,00:30,0.147,0.127,0.210,0.196,0.206,0.114,0.075,south,6.0,No
2024/04/17,00:40,0.146,0.128,0.208,0.196,0.205,0.114,0.075,south-southwest,6.3,No
2024/04/17,00:50,0.146,0.127,0.210,0.197,0.205,0.115,0.075,south-southwest,5.3,No
2024/04/17,01:00,0.146,0.127,0.210,0.195,0.205,0.114,0.074,south-southwest,6.7,No
2024/04/17,01:10,0.146,0.128,0.210,0.195,0.207,0.115,0.075,south-southwest,6.7,No
2024/04/17,01:20,0.146,0.127,0.211,0.196,0.205,0.115,0.075,south-southwest,7.1,No
2024/04/17,01:30,0.146,0.128,0.208,0.196,0.207,0.115,0.075,south-southwest,7.6,No
2024/04/17,01:40,0.145,0.128,0.210,0.196,0.205,0.114,0.075,south-southwest,7.2,No
2024/04/17,01:50,0.147,0.127,0.210,0.195,0.206,0.115,0.075,south-southwest,6.1,No
2024/04/17,02:00,0.146,0.127,0.210,0.197,0.205,0.114,0.076,south-southwest,5.7,No
2024/04/17,02:10,0.146,0.128,0.210,0.194,0.206,0.114,0.075,south-southwest,4.8,No
2024/04/17,02:20,0.146,0.127,0.208,0.195,0.206,0.114,0.075,south-southwest,4.7,No
2024/04/17,02:30,0.146,0.127,0.210,0.194,0.206,0.114,0.075,south,5.0,No
2024/04/17,02:40,0.147,0.128,0.210,0.197,0.205,0.114,0.075,south,4.9,No
2024/04/17,02:50,0.147,0.128,0.209,0.195,0.206,0.115,0.075,south,4.9,No
2024/04/17,03:00,0.147,0.127,0.211,0.195,0.206,0.115,0.076,south,4.0,No
2024/04/17,03:10,0.146,0.127,0.209,0.197,0.207,0.115,0.075,south,3.5,No
2024/04/17,03:20,0.146,0.127,0.210,0.194,0.204,0.114,0.075,south-southeast,3.4,No
2024/04/17,03:30,0.145,0.127,0.208,0.197,0.206,0.115,0.076,south,3.8,No
2024/04/17,03:40,0.147,0.127,0.209,0.195,0.205,0.114,0.075,south,3.2,No
2024/04/17,03:50,0.147,0.127,0.210,0.196,0.205,0.115,0.075,south,3.5,No
2024/04/17,04:00,0.147,0.127,0.209,0.195,0.206,0.115,0.075,south,3.8,No
2024/04/17,04:10,0.147,0.128,0.211,0.196,0.206,0.115,0.075,south,3.0,No
2024/04/17,04:20,0.146,0.127,0.209,0.195,0.206,0.115,0.076,south-southeast,3.0,No
2024/04/17,04:30,0.147,0.127,0.209,0.196,0.205,0.116,0.076,south,4.2,No
2024/04/17,04:40,0.146,0.129,0.211,0.196,0.208,0.116,0.076,south,4.6,No
2024/04/17,04:50,0.147,0.128,0.210,0.196,0.205,0.115,0.076,south,4.9,No
2024/04/17,05:00,0.146,0.128,0.210,0.197,0.207,0.115,0.076,south,4.6,No
2024/04/17,05:10,0.147,0.128,0.210,0.196,0.205,0.115,0.075,south-southwest,4.5,No
2024/04/17,05:20,0.146,0.128,0.210,0.196,0.207,0.115,0.076,south-southwest,3.9,No
2024/04/17,05:30,0.147,0.128,0.211,0.196,0.205,0.115,0.076,south,2.9,No
2024/04/17,05:40,0.147,0.128,0.210,0.196,0.207,0.115,0.076,south,3.6,Yes
2024/04/17,05:50,0.147,0.128,0.210,0.197,0.205,0.115,0.076,south,4.2,Yes
2024/04/17,06:00,0.147,0.128,0.210,0.196,0.207,0.115,0.077,south-southwest,2.2,Yes
2024/04/17,06:10,0.147,0.128,0.210,0.197,0.206,0.115,0.076,south,0.7,Yes
2024/04/17,06:20,0.148,0.128,0.211,0.195,0.208,0.114,0.076,south,2.2,No
2024/04/17,06:30,0.148,0.129,0.211,0.198,0.206,0.115,0.076,southwest,1.0,No
2024/04/17,06:40,0.148,0.129,0.211,0.196,0.208,0.116,0.077,west,1.3,No
2024/04/17,06:50,0.148,0.128,0.210,0.197,0.206,0.115,0.076,west-northwest,2.3,No
2024/04/17,07:00,0.148,0.129,0.211,0.196,0.208,0.115,0.076,northwest,2.8,No
2024/04/17,07:10,0.146,0.128,0.210,0.197,0.206,0.115,0.077,northwest,3.6,Yes
2024/04/17,07:20,0.148,0.128,0.211,0.197,0.208,0.115,0.076,north-northwest,3.7,Yes
2024/04/17,07:30,0.148,0.128,0.211,0.196,0.205,0.115,0.077,north-northwest,3.4,Yes
2024/04/17,07:40,0.148,0.128,0.211,0.197,0.208,0.116,0.076,north-northwest,4.2,Yes
2024/04/17,07:50,0.148,0.127,0.210,0.196,0.206,0.115,0.076,north-northwest,4.2,No
2024/04/17,08:00,0.147,0.129,0.211,0.196,0.208,0.115,0.076,north-northwest,4.3,No
2024/04/17,08:10,0.145,0.127,0.209,0.195,0.206,0.115,0.076,north-northwest,3.5,No
2024/04/17,08:20,0.147,0.129,0.210,0.196,0.206,0.116,0.076,north-northwest,3.9,No
2024/04/17,08:30,0.146,0.128,0.210,0.196,0.206,0.115,0.076,north,2.7,No
2024/04/17,08:40,0.147,0.129,0.210,0.196,0.207,0.116,0.075,north,3.1,No
2024/04/17,08:50,0.147,0.127,0.209,0.196,0.206,0.115,0.076,north,3.1,Yes
2024/04/17,09:00,0.146,0.128,0.211,0.196,0.207,0.115,0.076,north,1.8,Yes
2024/04/17,09:10,0.147,0.128,0.210,0.197,0.206,0.116,0.076,north-northeast,2.3,Yes
2024/04/17,09:20,0.149,0.129,0.211,0.195,0.208,0.116,0.076,north-northeast,1.7,Yes
2024/04/17,09:30,0.148,0.128,0.210,0.197,0.206,0.116,0.077,north-northeast,2.2,Yes
2024/04/17,09:40,0.148,0.129,0.211,0.195,0.208,0.116,0.076,north-northeast,2.2,Yes
2024/04/17,09:50,0.147,0.128,0.211,0.197,0.207,0.115,0.077,north,1.9,Yes
2024/04/17,10:00,0.146,0.129,0.211,0.195,0.206,0.116,0.076,northwest,1.6,Yes
2024/04/17,10:10,0.147,0.128,0.210,0.197,0.206,0.116,0.077,north,0.6,Yes
2024/04/17,10:20,0.148,0.129,0.210,0.196,0.206,0.115,0.076,-,CALM,Yes
2024/04/17,10:30,0.148,0.128,0.210,0.197,0.209,0.116,0.077,north,0.6,Yes
2024/04/17,10:40,0.147,0.128,0.212,0.196,0.205,0.116,0.076,north-northwest,0.6,No
2024/04/17,10:50,0.147,0.127,0.209,0.197,0.208,0.116,0.076,north,0.6,No
2024/04/17,11:00,0.146,0.129,0.212,0.196,0.206,0.116,0.077,east-southeast,1.1,No
2024/04/17,11:10,0.148,0.127,0.209,0.195,0.205,0.116,0.075,southeast,1.4,Yes
2024/04/17,11:20,0.147,0.128,0.210,0.196,0.206,0.115,0.076,south-southeast,1.6,No
2024/04/17,11:30,0.146,0.127,0.211,0.194,0.204,0.115,0.076,south-southeast,1.6,No
2024/04/17,11:40,0.147,0.129,0.209,0.196,0.207,0.115,0.076,south-southeast,1.5,No
2024/04/17,11:50,0.146,0.127,0.210,0.194,0.206,0.115,0.076,east-southeast,1.4,No
2024/04/17,12:00,0.148,0.126,0.209,0.194,0.204,0.116,0.076,east,0.7,No
2024/04/17,12:10,0.146,0.128,0.208,0.197,0.207,0.114,0.075,east,1.4,Yes
2024/04/17,12:20,0.146,0.127,0.211,0.196,0.205,0.115,0.076,east-southeast,1.3,Yes
2024/04/17,12:30,0.147,0.128,0.208,0.194,0.205,0.115,0.076,east-southeast,0.9,No
2024/04/17,12:40,0.147,0.128,0.210,0.197,0.209,0.114,0.076,southeast,0.8,No
2024/04/17,12:50,0.145,0.126,0.210,0.196,0.206,0.115,0.076,south-southeast,1.7,No
2024/04/17,13:00,0.146,0.128,0.209,0.194,0.204,0.115,0.075,south-southeast,2.5,No
2024/04/17,13:10,0.147,0.128,0.208,0.194,0.203,0.114,0.075,south,2.6,No
2024/04/17,13:20,0.146,0.127,0.211,0.196,0.203,0.115,0.075,south-southwest,2.0,No
2024/04/17,13:30,0.146,0.127,0.210,0.195,0.206,0.115,0.076,south,2.2,No
2024/04/17,13:40,0.148,0.127,0.208,0.194,0.206,0.115,0.076,south,2.1,No
2024/04/17,13:50,0.145,0.127,0.211,0.196,0.204,0.115,0.076,south-southeast,2.0,No
2024/04/17,14:00,0.147,0.129,0.211,0.196,0.208,0.115,0.076,south-southeast,2.1,No
2024/04/17,14:10,0.148,0.127,0.211,0.195,0.206,0.115,0.076,south-southeast,2.0,No
2024/04/17,14:20,0.146,0.128,0.211,0.196,0.205,0.116,0.076,south-southeast,1.7,No
2024/04/17,14:30,0.147,0.129,0.209,0.196,0.208,0.115,0.076,south-southeast,2.7,No
2024/04/17,14:40,0.147,0.127,0.212,0.194,0.207,0.116,0.076,south-southeast,2.6,No
2024/04/17,14:50,0.147,0.128,0.210,0.198,0.206,0.115,0.076,south-southeast,3.1,No
2024/04/17,15:00,0.147,0.128,0.210,0.196,0.208,0.114,0.076,south-southeast,1.6,No
2024/04/17,15:10,0.148,0.127,0.211,0.196,0.206,0.116,0.075,south-southeast,2.1,No
2024/04/17,15:20,0.146,0.128,0.209,0.196,0.206,0.115,0.075,south-southeast,2.0,No
2024/04/17,15:30,0.146,0.128,0.212,0.195,0.207,0.115,0.076,south-southeast,2.4,No
2024/04/17,15:40,0.147,0.128,0.211,0.199,0.204,0.115,0.076,south-southeast,2.3,No
2024/04/17,15:50,0.146,0.127,0.210,0.195,0.207,0.116,0.076,south-southeast,3.1,No
2024/04/17,16:00,0.148,0.127,0.209,0.197,0.206,0.115,0.076,south-southeast,2.2,No
2024/04/17,16:10,0.146,0.127,0.209,0.197,0.204,0.115,0.075,south-southeast,0.8,No
2024/04/17,16:20,0.147,0.128,0.211,0.195,0.207,0.115,0.075,south-southeast,0.9,No
2024/04/17,16:30,0.147,0.128,0.209,0.197,0.206,0.116,0.075,south-southeast,1.6,No
2024/04/17,16:40,0.145,0.127,0.211,0.194,0.207,0.114,0.076,south,1.2,No
2024/04/17,16:50,0.147,0.128,0.209,0.198,0.207,0.115,0.075,-,CALM,No
2024/04/17,17:00,0.147,0.127,0.211,0.195,0.205,0.114,0.075,-,CALM,No
2024/04/17,17:10,0.147,0.128,0.209,0.197,0.208,0.115,0.076,west-southwest,0.9,No
2024/04/17,17:20,0.148,0.128,0.210,0.196,0.206,0.114,0.075,south,0.6,No
2024/04/17,17:30,0.146,0.128,0.209,0.196,0.207,0.115,0.076,-,CALM,No
2024/04/17,17:40,0.148,0.128,0.210,0.196,0.206,0.115,0.075,-,CALM,No
2024/04/17,17:50,0.147,0.128,0.210,0.195,0.206,0.115,0.075,-,CALM,No
2024/04/17,18:00,0.147,0.128,0.211,0.197,0.207,0.115,0.076,south-southwest,0.7,No
2024/04/17,18:10,0.147,0.128,0.210,0.196,0.207,0.115,0.076,south-southwest,0.7,No
2024/04/17,18:20,0.147,0.128,0.210,0.197,0.208,0.115,0.075,-,CALM,No
2024/04/17,18:30,0.147,0.127,0.210,0.197,0.205,0.115,0.075,south,1.0,No
2024/04/17,18:40,0.147,0.128,0.211,0.197,0.208,0.115,0.075,south,0.7,No
2024/04/17,18:50,0.147,0.129,0.210,0.197,0.207,0.114,0.075,-,CALM,No
2024/04/17,19:00,0.147,0.128,0.211,0.195,0.207,0.115,0.075,south-southeast,0.6,No
2024/04/17,19:10,0.146,0.129,0.212,0.196,0.206,0.114,0.076,-,CALM,No
2024/04/17,19:20,0.147,0.127,0.210,0.196,0.206,0.115,0.076,south-southwest,1.2,No
2024/04/17,19:30,0.147,0.127,0.211,0.196,0.206,0.115,0.076,-,CALM,No
2024/04/17,19:40,0.148,0.129,0.211,0.196,0.206,0.115,0.076,-,CALM,No
2024/04/17,19:50,0.148,0.128,0.210,0.196,0.208,0.116,0.076,-,CALM,No
2024/04/17,20:00,0.146,0.128,0.211,0.197,0.205,0.115,0.075,east-northeast,0.6,No
2024/04/17,20:10,0.148,0.128,0.209,0.195,0.207,0.115,0.076,-,CALM,No
2024/04/17,20:20,0.146,0.128,0.212,0.197,0.205,0.115,0.075,east-northeast,0.9,No
2024/04/17,20:30,0.148,0.128,0.211,0.196,0.206,0.116,0.076,north-northeast,0.6,No
2024/04/17,20:40,0.147,0.128,0.211,0.198,0.206,0.115,0.076,-,CALM,No
2024/04/17,20:50,0.147,0.129,0.211,0.196,0.208,0.114,0.076,-,CALM,No
2024/04/17,21:00,0.148,0.129,0.211,0.196,0.207,0.115,0.076,west-northwest,1.0,No
2024/04/17,21:10,0.147,0.129,0.211,0.196,0.207,0.115,0.076,-,CALM,No
2024/04/17,21:20,0.148,0.128,0.212,0.196,0.207,0.115,0.076,west,0.6,No
2024/04/17,21:30,0.147,0.128,0.211,0.198,0.207,0.116,0.076,west-northwest,0.8,No
2024/04/17,21:40,0.149,0.128,0.210,0.196,0.209,0.115,0.076,northwest,0.8,No
2024/04/17,21:50,0.147,0.129,0.212,0.197,0.206,0.116,0.076,west-northwest,0.7,No
2024/04/17,22:00,0.147,0.129,0.212,0.197,0.208,0.116,0.076,northwest,0.8,No
2024/04/17,22:10,0.148,0.129,0.211,0.196,0.206,0.116,0.076,northwest,1.2,No
2024/04/17,22:20,0.146,0.129,0.212,0.196,0.207,0.115,0.076,north-northwest,1.4,No
2024/04/17,22:30,0.148,0.129,0.210,0.198,0.207,0.116,0.076,northwest,2.2,No
2024/04/17,22:40,0.148,0.128,0.212,0.198,0.207,0.116,0.076,northwest,2.8,No
2024/04/17,22:50,0.148,0.129,0.212,0.198,0.208,0.115,0.076,northwest,2.5,No
2024/04/17,23:00,0.147,0.128,0.211,0.197,0.207,0.116,0.076,northwest,2.1,No
2024/04/17,23:10,0.147,0.129,0.210,0.197,0.208,0.116,0.076,south-southwest,0.9,No
2024/04/17,23:20,0.148,0.129,0.212,0.197,0.207,0.115,0.076,northwest,1.0,No
2024/04/17,23:30,0.147,0.128,0.210,0.197,0.208,0.116,0.076,north-northwest,1.6,No
2024/04/17,23:40,0.147,0.129,0.211,0.197,0.206,0.116,0.076,north-northwest,1.7,No
2024/04/17,23:50,0.148,0.128,0.211,0.197,0.207,0.116,0.077,northwest,1.0,No
